EN

Hourly Weather Toczyska

Today, 11 April, Sunday

Time Temperature Precipitation Wind Pressure Humidity
00:00 +9°C° 0 mm 2 mps 747 mmHg 72%
01:00 +9°C° 0 mm 2 mps 747 mmHg 71%
02:00 +8°C° 0 mm 2 mps 747 mmHg 72%
03:00 +8°C° 0 mm 3 mps 747 mmHg 74%
04:00 +8°C° 0 mm 3 mps 747 mmHg 75%
05:00 +8°C° 0 mm 3 mps 747 mmHg 74%
06:00 +8°C° 0 mm 4 mps 748 mmHg 72%
07:00 +8°C° 0 mm 4 mps 748 mmHg 71%
08:00 +10°C° 0 mm 5 mps 748 mmHg 64%
09:00 +13°C° 0 mm 6 mps 748 mmHg 57%
10:00 +15°C° 0 mm 7 mps 748 mmHg 51%
11:00 +15°C° 0 mm 8 mps 747 mmHg 48%
12:00 +16°C° 0 mm 8 mps 747 mmHg 45%
13:00 +17°C° 0 mm 8 mps 747 mmHg 43%
14:00 +17°C° 0 mm 8 mps 747 mmHg 45%
15:00 +17°C° 0 mm 7 mps 747 mmHg 47%
16:00 +17°C° 0 mm 6 mps 747 mmHg 48%
17:00 +15°C° 0 mm 6 mps 747 mmHg 52%
18:00 +14°C° 0 mm 5 mps 747 mmHg 55%
19:00 +13°C° 0 mm 5 mps 747 mmHg 58%
20:00 +12°C° 0 mm 5 mps 747 mmHg 59%
21:00 +12°C° 0 mm 5 mps 747 mmHg 61%
22:00 +11°C° 0 mm 6 mps 747 mmHg 63%
23:00 +10°C° 0 mm 5 mps 747 mmHg 65%

Tomorrow, 12 April, Monday

Time Temperature Precipitation Wind Pressure Humidity
00:00 +10°C° 0 mm 5 mps 747 mmHg 68%
01:00 +9°C° 0 mm 5 mps 747 mmHg 70%
02:00 +9°C° 0 mm 5 mps 747 mmHg 71%
03:00 +9°C° 0 mm 5 mps 747 mmHg 71%
04:00 +9°C° 0 mm 5 mps 747 mmHg 71%
05:00 +9°C° 0 mm 5 mps 747 mmHg 73%
06:00 +10°C° 0 mm 4 mps 747 mmHg 75%
07:00 +10°C° 0 mm 4 mps 747 mmHg 78%
08:00 +10°C° 0 mm 5 mps 747 mmHg 73%
09:00 +12°C° 0 mm 5 mps 746 mmHg 69%
10:00 +14°C° 0 mm 5 mps 746 mmHg 64%
11:00 +14°C° 0 mm 5 mps 746 mmHg 65%
12:00 +14°C° 0 mm 4 mps 746 mmHg 66%
13:00 +14°C° 0 mm 3 mps 746 mmHg 67%
14:00 +13°C° 0.1 mm 3 mps 746 mmHg 72%
15:00 +12°C° 0.1 mm 3 mps 746 mmHg 76%
16:00 +13°C° 0.1 mm 2 mps 746 mmHg 81%
17:00 +12°C° 0.1 mm 2 mps 746 mmHg 83%
18:00 +10°C° 0.1 mm 3 mps 747 mmHg 85%
19:00 +10°C° 0.1 mm 3 mps 747 mmHg 87%
20:00 +9°C° 0 mm 3 mps 747 mmHg 88%
21:00 +7°C° 0 mm 4 mps 748 mmHg 89%
22:00 +6°C° 0 mm 4 mps 748 mmHg 91%
23:00 +5°C° 0 mm 5 mps 748 mmHg 90%

Day after tomorrow, 13 April, Tuesday

Time Temperature Precipitation Wind Pressure Humidity
00:00 +5°C° 0 mm 5 mps 748 mmHg 89%
01:00 +3°C° 0 mm 5 mps 749 mmHg 89%
02:00 +3°C° 0 mm 5 mps 749 mmHg 88%
03:00 +2°C° 0 mm 5 mps 749 mmHg 87%
04:00 +2°C° 0 mm 5 mps 749 mmHg 87%
05:00 +2°C° 0.1 mm 5 mps 749 mmHg 87%
06:00 +1°C° 0.1 mm 5 mps 750 mmHg 88%
07:00 +1°C° 0.1 mm 5 mps 750 mmHg 88%
08:00 +1°C° 0.6 mm 5 mps 750 mmHg 91%
09:00 +1°C° 0.6 mm 5 mps 751 mmHg 93%
10:00 0°C° 0.6 mm 5 mps 751 mmHg 96%
11:00 +1°C° 0.3 mm 6 mps 751 mmHg 95%
12:00 +1°C° 0.3 mm 6 mps 751 mmHg 94%
13:00 +1°C° 0.3 mm 6 mps 751 mmHg 93%
14:00 +1°C° 0.2 mm 6 mps 751 mmHg 93%
15:00 +1°C° 0.2 mm 6 mps 750 mmHg 92%
16:00 +1°C° 0.2 mm 5 mps 750 mmHg 91%
17:00 +1°C° 0.7 mm 5 mps 750 mmHg 92%
18:00 +1°C° 0.7 mm 5 mps 750 mmHg 93%
19:00 +1°C° 0.7 mm 5 mps 750 mmHg 95%
20:00 0°C° 0.9 mm 5 mps 750 mmHg 95%
21:00 0°C° 0.9 mm 5 mps 750 mmHg 96%
22:00 -1°C° 0.9 mm 6 mps 750 mmHg 97%
23:00 -1°C° 0.8 mm 6 mps 750 mmHg 95%

14 April, Wednesday

Time Temperature Precipitation Wind Pressure Humidity
00:00 -2°C° 0.8 mm 7 mps 749 mmHg 94%
01:00 -2°C° 0.8 mm 7 mps 749 mmHg 93%
02:00 -2°C° 0.5 mm 7 mps 749 mmHg 94%
03:00 -3°C° 0.5 mm 7 mps 749 mmHg 96%
04:00 -3°C° 0.5 mm 7 mps 749 mmHg 97%
05:00 -3°C° 1 mm 7 mps 749 mmHg 97%
06:00 -3°C° 1 mm 7 mps 748 mmHg 98%
07:00 -3°C° 1 mm 7 mps 748 mmHg 98%
08:00 -3°C° 1.1 mm 7 mps 748 mmHg 98%
09:00 -3°C° 1.1 mm 7 mps 748 mmHg 98%
10:00 -2°C° 1.1 mm 7 mps 748 mmHg 99%
11:00 -2°C° 0.8 mm 7 mps 748 mmHg 99%
12:00 -2°C° 0.8 mm 7 mps 748 mmHg 99%
13:00 -2°C° 0.8 mm 6 mps 748 mmHg 99%
14:00 -2°C° 0.5 mm 6 mps 747 mmHg 99%
15:00 -1°C° 0.5 mm 6 mps 747 mmHg 99%
16:00 -1°C° 0.5 mm 6 mps 747 mmHg 99%
17:00 -1°C° 0.4 mm 6 mps 747 mmHg 99%
18:00 -1°C° 0.4 mm 6 mps 747 mmHg 99%
19:00 -1°C° 0.4 mm 6 mps 747 mmHg 99%
20:00 -1°C° 0.5 mm 6 mps 747 mmHg 98%
21:00 -1°C° 0.5 mm 6 mps 747 mmHg 98%
22:00 -2°C° 0.5 mm 6 mps 746 mmHg 98%
23:00 -2°C° 0.9 mm 6 mps 746 mmHg 98%

15 April, Thursday

Time Temperature Precipitation Wind Pressure Humidity
00:00 -1°C° 0.9 mm 5 mps 746 mmHg 99%
01:00 -1°C° 0.9 mm 5 mps 746 mmHg 99%
02:00 -1°C° 0.3 mm 5 mps 746 mmHg 99%
03:00 -1°C° 0.3 mm 5 mps 746 mmHg 99%
04:00 0°C° 0.3 mm 5 mps 746 mmHg 99%
05:00 0°C° 0.2 mm 5 mps 746 mmHg 99%
06:00 0°C° 0.2 mm 5 mps 746 mmHg 99%
07:00 0°C° 0.2 mm 4 mps 746 mmHg 99%
08:00 +1°C° 0.1 mm 5 mps 746 mmHg 98%
09:00 +1°C° 0.1 mm 5 mps 747 mmHg 98%
10:00 +2°C° 0.1 mm 5 mps 747 mmHg 98%
11:00 +2°C° 0 mm 5 mps 747 mmHg 97%
12:00 +2°C° 0 mm 5 mps 747 mmHg 96%
13:00 +2°C° 0 mm 6 mps 747 mmHg 96%
14:00 +2°C° 0.3 mm 6 mps 748 mmHg 95%
15:00 +2°C° 0.3 mm 5 mps 748 mmHg 95%
16:00 +2°C° 0.3 mm 5 mps 748 mmHg 95%
17:00 +2°C° 0.4 mm 5 mps 748 mmHg 94%
18:00 +2°C° 0.4 mm 5 mps 748 mmHg 94%
19:00 +2°C° 0.4 mm 5 mps 749 mmHg 93%
20:00 +2°C° 0.5 mm 5 mps 749 mmHg 93%
21:00 +2°C° 0.5 mm 5 mps 749 mmHg 93%
22:00 +2°C° 0.5 mm 5 mps 749 mmHg 93%
23:00 +2°C° 0.1 mm 5 mps 749 mmHg 93%

16 April, Friday

Time Temperature Precipitation Wind Pressure Humidity
00:00 +2°C° 0.1 mm 5 mps 749 mmHg 92%
01:00 +1°C° 0.1 mm 5 mps 749 mmHg 91%
02:00 +1°C° 0.1 mm 5 mps 749 mmHg 92%
03:00 +1°C° 0.1 mm 5 mps 749 mmHg 93%
04:00 +1°C° 0.1 mm 5 mps 749 mmHg 93%
05:00 +1°C° 0.2 mm 5 mps 749 mmHg 93%
06:00 +1°C° 0.2 mm 5 mps 749 mmHg 93%
07:00 +1°C° 0.2 mm 5 mps 750 mmHg 93%
08:00 +2°C° 0.1 mm 5 mps 750 mmHg 93%
09:00 +2°C° 0.1 mm 5 mps 750 mmHg 92%
10:00 +2°C° 0.1 mm 5 mps 751 mmHg 92%
11:00 +2°C° 0 mm 5 mps 751 mmHg 92%
12:00 +2°C° 0 mm 5 mps 751 mmHg 91%
13:00 +2°C° 0 mm 5 mps 751 mmHg 91%
14:00 +2°C° 0 mm 5 mps 752 mmHg 90%
15:00 +3°C° 0 mm 5 mps 752 mmHg 89%
16:00 +3°C° 0 mm 5 mps 752 mmHg 87%
17:00 +3°C° 0 mm 5 mps 753 mmHg 87%
18:00 +4°C° 0 mm 4 mps 753 mmHg 87%
19:00 +4°C° 0 mm 4 mps 753 mmHg 87%
20:00 +3°C° 0 mm 4 mps 753 mmHg 90%
21:00 +3°C° 0 mm 4 mps 754 mmHg 92%
22:00 +3°C° 0 mm 4 mps 754 mmHg 95%
23:00 +3°C° 0 mm 4 mps 754 mmHg 93%
Show more

We Need Your Consent

Meteoprog and our Service Providers may store and access personal data such as cookies, device identifiers or other similar technologies on your device and process such data to personalise content and ads, as well as provide social media features and to analyse the traffic.

  • Store and/or access information on your device

    Cookies, device identifiers or other information can be stored or accessed on your device for the purposes indicated above.

  • Personalised ads and content, ad and content measurement, audience insights, and products development

    Ads and content can be personalised based on a profile. More data can be added to better personalise ads and content. Ad and content performance can be measured. Insights about the audience who saw the ads and content can be derived. Such data can be used to develop or improve user’s experience, systems and software.

By clicking ‘I Agree’ you will allow the use of indicated cookies, device identifiers, web beacons or other similar technologies. Your settings can be changed in the browser on your device.

For certain purposes, legitimate interests may be relied on, rather than consent. You can read more about this in our Privacy and Cookie Policy.